• In Denmark
  • List of Countries
  • For 7 days
  • Water Temperature
  • Satellite Maps
  • Weather Map
  • Weather Widgets
  • user-avatar
    Login

    Hourly Weather Kokurino

    Today, 25 September, Tuesday

    Time Temperature Precipitation Wind Pressure Humidity
    00:00 +12°C° 0 mm 2 mps 749 mmHg 69%
    01:00 +12°C° 0 mm 2 mps 749 mmHg 69%
    02:00 +11°C° 0 mm 3 mps 749 mmHg 68%
    03:00 +10°C° 0 mm 2 mps 748 mmHg 70%
    04:00 +11°C° 0 mm 3 mps 748 mmHg 68%
    05:00 +11°C° 0 mm 4 mps 747 mmHg 66%
    06:00 +10°C° 0 mm 5 mps 747 mmHg 65%
    07:00 +11°C° 0 mm 6 mps 747 mmHg 60%
    08:00 +13°C° 0 mm 6 mps 746 mmHg 56%
    09:00 +14°C° 0 mm 7 mps 746 mmHg 52%
    10:00 +16°C° 0.1 mm 7 mps 746 mmHg 53%
    11:00 +17°C° 0.1 mm 7 mps 745 mmHg 54%
    12:00 +18°C° 0.1 mm 7 mps 745 mmHg 55%
    13:00 +18°C° 0.3 mm 7 mps 745 mmHg 58%
    14:00 +19°C° 0.3 mm 6 mps 745 mmHg 60%
    15:00 +20°C° 0.3 mm 6 mps 745 mmHg 63%
    16:00 +17°C° 1 mm 6 mps 746 mmHg 70%
    17:00 +15°C° 1 mm 6 mps 746 mmHg 77%
    18:00 +13°C° 1 mm 6 mps 746 mmHg 84%
    19:00 +13°C° 0.2 mm 5 mps 747 mmHg 83%
    20:00 +12°C° 0.2 mm 5 mps 748 mmHg 81%
    21:00 +12°C° 0.2 mm 4 mps 748 mmHg 80%
    22:00 +11°C° 0 mm 4 mps 749 mmHg 79%
    23:00 +11°C° 0 mm 3 mps 749 mmHg 79%

    Tomorrow, 26 September, Wednesday

    Time Temperature Precipitation Wind Pressure Humidity
    00:00 +11°C° 0 mm 3 mps 750 mmHg 78%
    01:00 +10°C° 0 mm 3 mps 750 mmHg 79%
    02:00 +10°C° 0 mm 3 mps 751 mmHg 81%
    03:00 +9°C° 0 mm 3 mps 751 mmHg 82%
    04:00 +9°C° 0 mm 3 mps 752 mmHg 82%
    05:00 +9°C° 0 mm 3 mps 752 mmHg 82%
    06:00 +9°C° 0 mm 2 mps 753 mmHg 82%
    07:00 +9°C° 0 mm 3 mps 753 mmHg 78%
    08:00 +10°C° 0 mm 3 mps 753 mmHg 73%
    09:00 +11°C° 0 mm 4 mps 754 mmHg 69%
    10:00 +12°C° 0 mm 4 mps 754 mmHg 64%
    11:00 +13°C° 0 mm 4 mps 754 mmHg 58%
    12:00 +14°C° 0 mm 4 mps 755 mmHg 53%
    13:00 +14°C° 0 mm 4 mps 755 mmHg 52%
    14:00 +14°C° 0 mm 4 mps 755 mmHg 51%
    15:00 +14°C° 0 mm 4 mps 755 mmHg 51%
    16:00 +13°C° 0 mm 3 mps 755 mmHg 55%
    17:00 +12°C° 0 mm 3 mps 756 mmHg 58%
    18:00 +11°C° 0 mm 3 mps 756 mmHg 62%
    19:00 +10°C° 0 mm 2 mps 756 mmHg 65%
    20:00 +9°C° 0 mm 2 mps 757 mmHg 67%
    21:00 +9°C° 0 mm 2 mps 757 mmHg 70%
    22:00 +8°C° 0 mm 2 mps 757 mmHg 71%
    23:00 +8°C° 0 mm 2 mps 757 mmHg 73%

    Day after tomorrow, 27 September, Thursday

    Time Temperature Precipitation Wind Pressure Humidity
    00:00 +8°C° 0 mm 2 mps 757 mmHg 74%
    01:00 +7°C° 0 mm 2 mps 757 mmHg 75%
    02:00 +7°C° 0 mm 2 mps 757 mmHg 76%
    03:00 +6°C° 0 mm 2 mps 757 mmHg 77%
    04:00 +6°C° 0 mm 2 mps 757 mmHg 78%
    05:00 +5°C° 0 mm 3 mps 756 mmHg 78%
    06:00 +5°C° 0 mm 3 mps 756 mmHg 79%
    07:00 +6°C° 0 mm 4 mps 756 mmHg 71%
    08:00 +8°C° 0 mm 5 mps 756 mmHg 63%
    09:00 +9°C° 0 mm 6 mps 755 mmHg 55%
    10:00 +10°C° 0 mm 7 mps 755 mmHg 51%
    11:00 +11°C° 0 mm 8 mps 754 mmHg 48%
    12:00 +12°C° 0 mm 8 mps 754 mmHg 44%
    13:00 +12°C° 0 mm 8 mps 753 mmHg 43%
    14:00 +11°C° 0 mm 9 mps 753 mmHg 42%
    15:00 +11°C° 0 mm 9 mps 752 mmHg 42%
    16:00 +10°C° 0 mm 8 mps 752 mmHg 44%
    17:00 +10°C° 0 mm 8 mps 751 mmHg 47%
    18:00 +9°C° 0 mm 8 mps 751 mmHg 50%
    19:00 +9°C° 0.1 mm 8 mps 750 mmHg 50%
    20:00 +9°C° 0.1 mm 8 mps 750 mmHg 50%
    21:00 +8°C° 0.1 mm 9 mps 749 mmHg 51%
    22:00 +9°C° 0.1 mm 8 mps 749 mmHg 58%
    23:00 +9°C° 0.1 mm 8 mps 749 mmHg 64%

    28 September, Friday

    Time Temperature Precipitation Wind Pressure Humidity
    00:00 +9°C° 0.1 mm 8 mps 749 mmHg 71%
    01:00 +9°C° 0 mm 7 mps 749 mmHg 73%
    02:00 +9°C° 0 mm 7 mps 749 mmHg 75%
    03:00 +9°C° 0 mm 6 mps 749 mmHg 77%
    04:00 +8°C° 0 mm 6 mps 750 mmHg 80%
    05:00 +8°C° 0 mm 5 mps 750 mmHg 83%
    06:00 +7°C° 0 mm 5 mps 750 mmHg 86%
    07:00 +8°C° 0 mm 5 mps 751 mmHg 79%
    08:00 +10°C° 0 mm 5 mps 751 mmHg 71%
    09:00 +12°C° 0 mm 5 mps 752 mmHg 63%
    10:00 +13°C° 0 mm 6 mps 752 mmHg 57%
    11:00 +14°C° 0 mm 6 mps 752 mmHg 50%
    12:00 +15°C° 0 mm 6 mps 752 mmHg 44%
    13:00 +15°C° 0 mm 6 mps 752 mmHg 43%
    14:00 +16°C° 0 mm 6 mps 752 mmHg 42%
    15:00 +16°C° 0 mm 5 mps 751 mmHg 41%
    16:00 +15°C° 0 mm 5 mps 751 mmHg 45%
    17:00 +14°C° 0 mm 4 mps 751 mmHg 49%
    18:00 +13°C° 0 mm 4 mps 751 mmHg 53%
    19:00 +13°C° 0 mm 4 mps 750 mmHg 56%
    20:00 +13°C° 0 mm 5 mps 750 mmHg 59%
    21:00 +13°C° 0 mm 5 mps 750 mmHg 62%
    22:00 +13°C° 0 mm 5 mps 750 mmHg 66%
    23:00 +13°C° 0 mm 6 mps 750 mmHg 69%

    29 September, Saturday

    Time Temperature Precipitation Wind Pressure Humidity
    00:00 +13°C° 0 mm 6 mps 749 mmHg 72%
    01:00 +13°C° 0 mm 6 mps 749 mmHg 74%
    02:00 +13°C° 0 mm 6 mps 749 mmHg 76%
    03:00 +13°C° 0 mm 6 mps 749 mmHg 77%
    04:00 +13°C° 0 mm 6 mps 749 mmHg 78%
    05:00 +11°C° 0 mm 6 mps 749 mmHg 80%
    06:00 +11°C° 0 mm 6 mps 750 mmHg 81%
    07:00 +13°C° 0 mm 5 mps 750 mmHg 80%
    08:00 +13°C° 0 mm 5 mps 751 mmHg 79%
    09:00 +14°C° 0 mm 5 mps 751 mmHg 78%
    10:00 +15°C° 0 mm 4 mps 751 mmHg 74%
    11:00 +15°C° 0 mm 4 mps 752 mmHg 70%
    12:00 +17°C° 0 mm 3 mps 752 mmHg 66%
    13:00 +17°C° 0 mm 3 mps 752 mmHg 64%
    14:00 +17°C° 0 mm 3 mps 752 mmHg 62%
    15:00 +16°C° 0 mm 2 mps 752 mmHg 60%
    16:00 +14°C° 0.1 mm 3 mps 753 mmHg 61%
    17:00 +13°C° 0.1 mm 3 mps 753 mmHg 62%
    18:00 +12°C° 0.1 mm 4 mps 753 mmHg 63%
    19:00 +12°C° 0.5 mm 4 mps 753 mmHg 65%
    20:00 +11°C° 0.5 mm 4 mps 754 mmHg 67%
    21:00 +11°C° 0.5 mm 4 mps 754 mmHg 68%
    22:00 +10°C° 1.4 mm 4 mps 754 mmHg 72%
    23:00 +8°C° 1.4 mm 5 mps 754 mmHg 76%

    30 September, Sunday

    Time Temperature Precipitation Wind Pressure Humidity
    00:00 +8°C° 1.4 mm 5 mps 755 mmHg 80%
    01:00 +7°C° 1.2 mm 5 mps 755 mmHg 81%
    02:00 +7°C° 1.2 mm 5 mps 755 mmHg 81%
    03:00 +6°C° 1.2 mm 5 mps 756 mmHg 82%
    04:00 +6°C° 0.9 mm 5 mps 756 mmHg 80%
    05:00 +6°C° 0.9 mm 5 mps 757 mmHg 79%
    06:00 +6°C° 0.9 mm 5 mps 757 mmHg 78%
    07:00 +6°C° 0.1 mm 4 mps 757 mmHg 74%
    08:00 +6°C° 0.1 mm 4 mps 758 mmHg 70%
    09:00 +7°C° 0.1 mm 4 mps 758 mmHg 66%
    10:00 +8°C° 0 mm 4 mps 758 mmHg 60%
    11:00 +10°C° 0 mm 4 mps 758 mmHg 54%
    12:00 +11°C° 0 mm 4 mps 758 mmHg 48%
    13:00 +11°C° 0 mm 4 mps 758 mmHg 46%
    14:00 +12°C° 0 mm 4 mps 758 mmHg 43%
    15:00 +12°C° 0 mm 4 mps 758 mmHg 41%
    16:00 +11°C° 0 mm 3 mps 758 mmHg 44%
    17:00 +10°C° 0 mm 3 mps 758 mmHg 47%
    18:00 +9°C° 0 mm 2 mps 758 mmHg 50%
    19:00 +8°C° 0 mm 2 mps 758 mmHg 51%
    20:00 +8°C° 0 mm 2 mps 759 mmHg 52%
    21:00 +7°C° 0 mm 2 mps 759 mmHg 53%
    22:00 +7°C° 0 mm 2 mps 759 mmHg 54%
    23:00 +5°C° 0 mm 3 mps 759 mmHg 55%
    Show more